Regional Weather Roundup
Issued by NWS Sioux Falls, SD

Home | Current Version | Previous Version | Graphics & Text | Print | Product List | Glossary On
Versions: 1 2 3 4 5 6 7 8 9 10 11 12 13 14 15 16 17 18 19 20 21 22 23 24 25 26 27 28 29 30 31 32 33 34 35 36 37 38 39 40 41 42 43 44 45 46 47 48 49 50
000
ASUS43 KFSD 130402
RWRFSD

WEATHER ROUNDUP FOR SE SOUTH DAKOTA/SW MINNESOTA/NW IOWA
NATIONAL WEATHER SERVICE SIOUX FALLS SD
1000 PM CST TUE DEC 12 2017

NOTE: "FAIR" INDICATES FEW OR NO CLOUDS BELOW 12,000 FEET WITH NO
SIGNIFICANT WEATHER AND OR OBSTRUCTIONS TO VISIBILITY.


SDZ038>040-050-052>070-130500-
SOUTHEAST SOUTH DAKOTA

CITY           SKY/WX    TMP DP  RH WIND       PRES   REMARKS
BROOKINGS      CLOUDY    33  25  72 S9          N/A  WCI  25
CHAMBERLAIN    CLOUDY    46  24  40 W16       29.70F
HURON          CLOUDY    38  25  59 SW8       29.63F
MADISON        FAIR      36  27  69 SW13      29.64F
MITCHELL       CLOUDY    46  24  42 W13       29.68F
SIOUX FALLS    CLOUDY    37  26  64 SW8       29.67F
WINNER         FAIR      50  20  30 W14       29.75F
YANKTON        CLEAR     42  21  43 SW10      29.72F
$$

MNZ071-072-080-081-089-090-097-098-130500-
SOUTHWEST MINNESOTA

CITY           SKY/WX    TMP DP  RH WIND       PRES   REMARKS
FAIRMONT       CLOUDY    29  24  82 S13       29.71F WCI  19
JACKSON        CLOUDY    30  27  86 MISG      29.69F
LUVERNE        CLOUDY    21  19  93 S5        29.71F WCI  15
MARSHALL       CLOUDY    38  27  64 SW21      29.60F
MONTEVIDEO     CLOUDY    32  28  86 SW8       29.58F WCI  25
PIPESTONE      CLOUDY    30  25  80 SW10      29.65F WCI  21
REDWOOD FALLS  PTCLDY    30  25  81 S9        29.63F WCI  22
WINDOM         CLOUDY    30  18  59 SW13      29.67F WCI  20
WORTHINGTON    CLOUDY    32  25  75 SW17      29.68F WCI  21
$$

IAZ001>003-012>014-020>022-031-032-NEZ013-014-SDZ071-130500-
NORTHWEST IOWA

CITY           SKY/WX    TMP DP  RH WIND       PRES   REMARKS
CHEROKEE       CLEAR     31  26  81 SW3       29.75F
DENISON        CLEAR     30  25  80 S7        29.81F WCI  23
ESTHERVILLE    CLOUDY    27  24  89 SW10      29.71F WCI  17
LE MARS        CLEAR     32  25  74 S6        29.74F WCI  26
ORANGE CITY    CLEAR     34  28  80 SW10      29.72F WCI  26
SHELDON        CLEAR     32  25  74 S12       29.70F WCI  23
SIOUX CITY     CLEAR     26  21  81 E7        29.77F WCI  18
SPENCER        CLEAR     30  24  78 SW9       29.73F WCI  22
STORM LAKE     CLEAR     32  25  74 SW12      29.74F WCI  23
$$

ABBREVIATIONS USED IN REMARKS
   TC - TEMPERATURE IN CELSIUS
  WCI - WIND CHILL INDEX
   HX - HEAT INDEX
  VSB - VISIBILITY





USA.gov is the U.S. government's official web portal to all federal, state and local government web resources and services.